Location: Kuppenheim
(48.8299°N, 8.2568°E)
Time: 08:36:13
(UTC+00:00)

Envisat - Pass Details

Date: 03 December 2022
Orbit: 763 x 765 km, 98.2° (Epoch: 04 February)

Event Time Altitude Azimuth Distance (km) Brightness Sun altitude
Rises 02:40:02 0° 25° (NNE) 3,245 6.7 -41.9°
Reaches altitude 10° 02:42:49 10° 39° (NE) 2,314 5.9 -41.5°
Enters shadow 02:43:37 13° 46° (NE) 2,087 5.7 -41.3°
